Weather History for Washington, MO

Change the Weather History Date:

Tuesday, June 10, 2014

  Actual Average (KSTL) Record (KSTL)
Temperature  
Mean Temperature 70 °F 75 °F  
Max Temperature 77 °F 84 °F 100 °F (1953)
Min Temperature 62 °F 65 °F 48 °F (1972)
Degree Days  
Heating Degree Days 0 0  
Month to date heating degree days 3  
Since 1 June heating degree days 3  
Since 1 July heating degree days 4533  
Cooling Degree Days 6 10  
Month to date cooling degree days 84  
Year to date cooling degree days 258  
Since 1 June cooling degree days 84  
Growing Degree Days 20 (Base 50)    
Moisture  
Dew Point 66 °F    
Average Humidity 97    
Maximum Humidity 100    
Minimum Humidity 73    
Precipitation  
Precipitation 0.76 in 0.15 in 2.68 in (2003)
Month to date precipitation 1.54  
Year to date precipitation 17.91  
Snow  
Snow 0.00 in 0.00 in 0.00 in (2012)
Month to date snowfall 0.0  
Since 1 June snowfall 0.0  
Since 1 July snowfall 17.7  
Snow Depth -    
Sea Level Pressure  
Sea Level Pressure 29.71 in    
Wind  
Wind Speed 3 mph (SE)    
Max Wind Speed 16 mph    
Max Gust Speed 28 mph    
Visibility 8 miles    
Events Rain , Thunderstorm    
T = Trace of Precipitation, MM = Missing Value Source: NWS Daily Summary

Daily Weather History Graph

Daily Weather History Graph

Search for Another Location

Airport:

Trip Planner

Search our weather history database for the weather conditions in past years. The results will help you decide how hot, cold, wet, or windy it might be!

Date:

Astronomy

Jun. 10, 2014 Rise Set
Actual Time 5:39 AM CDT 8:27 PM CDT
Civil Twilight 5:07 AM CDT 8:59 PM CDT
Nautical Twilight 4:27 AM CDT 9:39 PM CDT
Astronomical Twilight 3:42 AM CDT 10:24 PM CDT
Moon 5:55 PM CDT (6/10) 3:43 AM CDT (6/10)
Length of Visible Light 15h 52m
Length of Day
14h 48m
Waxing Gibbous, 92% of the Moon is Illuminated
Jun 10
Waxing Gibbous
Jun 12
Full
Jun 19
Last Quarter
Jun 27
New
Jul 5
First Quarter

Hourly Weather History & Observations

Time (CDT) Temp. Dew Point Humidity Pressure Visibility Wind Dir Wind Speed Gust Speed Precip Events Conditions
12:15 AM 64.4 °F 64.4 °F 100% 29.72 in 7.0 mi SE 3.5 mph 16.1 mph N/A   Mostly Cloudy
12:35 AM 64.4 °F 64.4 °F 100% 29.72 in 3.0 mi East 6.9 mph - N/A Rain Light Rain
12:55 AM 64.4 °F 64.4 °F 100% 29.72 in 3.0 mi SE 3.5 mph - N/A Rain Light Rain
1:15 AM 64.4 °F 64.4 °F 100% 29.72 in 10.0 mi East 5.8 mph - N/A   Overcast
1:35 AM 64.4 °F 64.4 °F 100% 29.71 in 7.0 mi Calm Calm - N/A   Overcast
1:55 AM 64.4 °F 64.4 °F 100% 29.71 in 2.5 mi Calm Calm - N/A Rain Light Rain
2:15 AM 64.4 °F 64.4 °F 100% 29.70 in 4.0 mi Calm Calm - N/A   Overcast
2:35 AM 64.4 °F 64.4 °F 100% 29.69 in 4.0 mi Calm Calm - N/A   Overcast
2:55 AM 64.4 °F 64.4 °F 100% 29.69 in 10.0 mi Calm Calm - N/A   Overcast
3:15 AM 64.4 °F 64.4 °F 100% 29.69 in 7.0 mi Calm Calm - N/A   Overcast
3:35 AM 64.4 °F 64.4 °F 100% 29.69 in 5.0 mi Calm Calm - N/A   Mostly Cloudy
4:15 AM 64.4 °F 64.4 °F 100% 29.70 in 7.0 mi Calm Calm - N/A   Overcast
4:35 AM 64.4 °F 64.4 °F 100% 29.69 in 3.0 mi Calm Calm - N/A   Overcast
4:55 AM 64.4 °F 64.4 °F 100% 29.69 in 3.0 mi Calm Calm - N/A   Overcast
5:15 AM 64.4 °F 64.4 °F 100% 29.70 in 5.0 mi Calm Calm - N/A   Overcast
5:35 AM 64.4 °F 64.4 °F 100% 29.70 in 4.0 mi SE 3.5 mph - N/A   Overcast
5:55 AM 66.2 °F 66.2 °F 100% 29.72 in 5.0 mi Calm Calm - N/A   Overcast
6:15 AM 66.2 °F 66.2 °F 100% 29.70 in 6.0 mi Calm Calm - N/A   Mostly Cloudy
6:35 AM 66.2 °F 66.2 °F 100% 29.71 in 5.0 mi SSE 3.5 mph - N/A   Mostly Cloudy
7:15 AM 66.2 °F 66.2 °F 100% 29.72 in 7.0 mi Calm Calm - N/A   Mostly Cloudy
7:35 AM 66.2 °F 66.2 °F 100% 29.72 in 10.0 mi SSE 3.5 mph - N/A   Overcast
8:15 AM 68.0 °F 68.0 °F 100% 29.72 in 10.0 mi Calm Calm - N/A   Overcast
8:35 AM 68.0 °F 68.0 °F 100% 29.73 in 10.0 mi SE 3.5 mph - N/A   Overcast
8:55 AM 69.8 °F 69.8 °F 100% 29.73 in 10.0 mi SE 4.6 mph - N/A   Overcast
9:15 AM 69.8 °F 69.8 °F 100% 29.73 in 10.0 mi SSE 4.6 mph - N/A   Overcast
9:35 AM 71.6 °F 69.8 °F 94% 29.74 in 10.0 mi SSE 3.5 mph - N/A   Overcast
9:55 AM 71.6 °F 69.8 °F 94% 29.73 in 10.0 mi SE 8.1 mph - N/A   Overcast
10:15 AM 73.4 °F 68.0 °F 83% 29.72 in 10.0 mi SE 5.8 mph - N/A   Overcast
10:35 AM 73.4 °F 68.0 °F 83% 29.72 in 10.0 mi SSE 5.8 mph - N/A   Mostly Cloudy
10:55 AM 75.2 °F 68.0 °F 78% 29.72 in 10.0 mi SSE 3.5 mph - N/A   Scattered Clouds
11:15 AM 75.2 °F 68.0 °F 78% 29.72 in 10.0 mi South 3.5 mph - N/A   Scattered Clouds
11:35 AM 75.2 °F 68.0 °F 78% 29.72 in 10.0 mi ESE 5.8 mph - N/A   Mostly Cloudy
11:55 AM 75.2 °F 68.0 °F 78% 29.71 in 10.0 mi ENE 6.9 mph - N/A   Mostly Cloudy
12:15 PM 75.2 °F 66.2 °F 73% 29.71 in 10.0 mi Calm Calm - N/A   Mostly Cloudy
12:55 PM 77.0 °F 68.0 °F 74% 29.68 in 10.0 mi NE 5.8 mph - N/A   Partly Cloudy
1:55 PM 64.4 °F 64.4 °F 100% 29.71 in - West 16.1 mph 27.6 mph 0.39 in Rain , Thunderstorm Heavy Thunderstorms and Rain
2:15 PM 64.4 °F 64.4 °F 100% 29.70 in 0.5 mi NE 4.6 mph - 0.15 in Rain , Thunderstorm Thunderstorms and Rain
2:35 PM 64.4 °F 64.4 °F 100% 29.69 in 1.5 mi NE 10.4 mph - 0.37 in Rain , Thunderstorm Rain
3:15 PM 64.4 °F 64.4 °F 100% 29.69 in 5.0 mi WNW 6.9 mph - N/A Rain , Thunderstorm Light Rain
4:15 PM 66.2 °F 66.2 °F 100% 29.71 in 5.0 mi SSE 5.8 mph - N/A Rain , Thunderstorm Light Rain
4:55 PM 64.4 °F 64.4 °F 100% 29.71 in 10.0 mi ESE 3.5 mph - N/A Thunderstorm Scattered Clouds
5:15 PM 64.4 °F 64.4 °F 100% 29.71 in 10.0 mi Calm Calm - N/A   Mostly Cloudy
5:35 PM 66.2 °F 66.2 °F 100% 29.70 in 10.0 mi Calm Calm - N/A Thunderstorm Mostly Cloudy
5:55 PM 66.2 °F 66.2 °F 100% 29.69 in 10.0 mi Calm Calm - N/A   Mostly Cloudy
6:15 PM 66.2 °F 66.2 °F 100% 29.70 in 10.0 mi Calm Calm - N/A   Mostly Cloudy
6:55 PM 66.2 °F 66.2 °F 100% 29.70 in 10.0 mi Calm Calm - N/A   Overcast
7:15 PM 66.2 °F 66.2 °F 100% 29.70 in 10.0 mi Calm Calm - N/A   Overcast
7:35 PM 66.2 °F 66.2 °F 100% 29.71 in 10.0 mi Calm Calm - N/A   Overcast
7:55 PM 66.2 °F 66.2 °F 100% 29.70 in 10.0 mi Calm Calm - N/A   Overcast
8:15 PM 66.2 °F 66.2 °F 100% 29.70 in 8.0 mi Calm Calm - N/A   Mostly Cloudy
8:35 PM 66.2 °F 66.2 °F 100% 29.71 in 10.0 mi Calm Calm - N/A   Mostly Cloudy
8:55 PM 64.4 °F 64.4 °F 100% 29.71 in 8.0 mi Calm Calm - N/A   Overcast
9:15 PM 64.4 °F 64.4 °F 100% 29.71 in 9.0 mi Calm Calm - N/A   Overcast
9:35 PM 64.4 °F 64.4 °F 100% 29.72 in 10.0 mi Calm Calm - N/A   Overcast
9:55 PM 64.4 °F 64.4 °F 100% 29.72 in 7.0 mi Calm Calm - N/A Rain Light Rain
10:15 PM 64.4 °F 64.4 °F 100% 29.72 in 6.0 mi Calm Calm - N/A   Overcast
10:55 PM 64.4 °F 64.4 °F 100% 29.72 in 8.0 mi Calm Calm - N/A   Mostly Cloudy
11:15 PM 64.4 °F 64.4 °F 100% 29.72 in 7.0 mi Calm Calm - N/A   Clear
11:35 PM 64.4 °F 64.4 °F 100% 29.72 in 7.0 mi Calm Calm - N/A   Mostly Cloudy
11:55 PM 62.6 °F 62.6 °F 100% 29.72 in 9.0 mi Calm Calm - N/A   Scattered Clouds